Teterboro, NJ

10:43 PM EST on February 24, 2017 (GMT -0500)
Teterboro

Weather History for KTEB - June, 2012

Change the Weather History Date:

Wednesday, June 6, 2012

  Actual Average Record
Temperature  
Mean Temperature 62 °F -  
Max Temperature 73 °F 75 °F 90 °F (2005)
Min Temperature 51 °F 55 °F 51 °F (2012)
Degree Days  
Heating Degree Days 3    
Growing Degree Days 12 (Base 50)    
Moisture  
Dew Point 51 °F    
Average Humidity 70    
Maximum Humidity 96    
Minimum Humidity 42    
Precipitation  
Precipitation 0.00 in - - ()
Sea Level Pressure  
Sea Level Pressure 29.96 in    
Wind  
Wind Speed 1 mph (SSW)    
Max Wind Speed 9 mph    
Max Gust Speed -    
Visibility 10 miles    
Events Fog , Thunderstorm    
Averages and records for this station are not official NWS values.
T = Trace of Precipitation, MM = Missing Value Source: NWS Daily Summary

Daily Weather History Graph

Daily Weather History Graph

Search for Another Location

Airport or City:

Trip Planner

Search our weather history database for the weather conditions in past years. The results will help you decide how hot, cold, wet, or windy it might be!

Date:

Astronomy

Jun. 06, 2012 Rise Set
Actual Time 5:24 AM EDT 8:25 PM EDT
Civil Twilight 4:51 AM EDT 8:58 PM EDT
Nautical Twilight 4:09 AM EDT 9:40 PM EDT
Astronomical Twilight 3:20 AM EDT 10:30 PM EDT
Moon 10:34 PM EDT (6/6) 7:43 AM EDT (6/6)
Length of Visible Light 16h 06m
Length of Day
15h 00m
Waning Gibbous, 93% of the Moon is Illuminated
Jun 6
Waning Gibbous
Jun 11
Last Quarter
Jun 19
New
Jun 26
First Quarter
Jul 3
Full

Hourly Weather History & Observations

Time (EDT) Temp. Dew Point Humidity Pressure Visibility Wind Dir Wind Speed Gust Speed Precip Events Conditions
12:51 AM 55.0 °F 53.1 °F 93% 29.94 in 10.0 mi Calm Calm - N/A   Clear
1:51 AM 53.1 °F 51.1 °F 93% 29.94 in 10.0 mi Calm Calm - N/A   Clear
2:51 AM 52.0 °F 50.0 °F 93% 29.94 in 10.0 mi Calm Calm - N/A Fog Shallow Fog
3:51 AM 53.1 °F 51.1 °F 93% 29.94 in 10.0 mi Calm Calm - N/A Fog Shallow Fog
4:51 AM 52.0 °F 50.0 °F 93% 29.94 in 10.0 mi Calm Calm - N/A Fog Shallow Fog
5:51 AM 51.1 °F 50.0 °F 96% 29.97 in 10.0 mi Calm Calm - N/A   Clear
6:51 AM 54.0 °F 52.0 °F 93% 29.98 in 10.0 mi Calm Calm - N/A   Clear
7:51 AM 59.0 °F 52.0 °F 78% 29.99 in 10.0 mi Calm Calm - N/A   Clear
8:51 AM 62.6 °F 53.6 °F 72% 29.99 in 10.0 mi Calm Calm - N/A   Clear
9:51 AM 64.9 °F 52.0 °F 63% 29.99 in 10.0 mi Variable 3.5 mph - N/A   Overcast
10:51 AM 66.9 °F 48.9 °F 52% 29.99 in 10.0 mi Calm Calm - N/A   Clear
11:51 AM 69.1 °F 48.9 °F 49% 29.98 in 10.0 mi Variable 3.5 mph - N/A   Scattered Clouds
12:51 PM 70.0 °F 48.0 °F 46% 29.96 in 10.0 mi Calm Calm - N/A   Mostly Cloudy
1:51 PM 72.0 °F 48.0 °F 43% 29.95 in 10.0 mi Calm Calm - N/A   Mostly Cloudy
2:51 PM 73.0 °F 48.9 °F 42% 29.94 in 10.0 mi SSW 9.2 mph - N/A   Scattered Clouds
3:51 PM 69.1 °F 48.9 °F 49% 29.93 in 10.0 mi Calm Calm - N/A   Overcast
4:51 PM 71.6 °F 48.2 °F 43% 29.92 in 10.0 mi Variable 6.9 mph - N/A   Mostly Cloudy
5:51 PM 72.0 °F 50.0 °F 46% 29.92 in 10.0 mi Variable 4.6 mph - N/A   Mostly Cloudy
6:51 PM 70.0 °F 50.0 °F 49% 29.93 in 10.0 mi Calm Calm - N/A   Mostly Cloudy
7:51 PM 64.9 °F 55.0 °F 70% 29.95 in 10.0 mi SW 5.8 mph - 0.00 in   Mostly Cloudy
8:34 PM 62.6 °F 57.2 °F 82% 29.95 in 10.0 mi South 6.9 mph - N/A Thunderstorm Thunderstorm
8:51 PM 62.6 °F 55.4 °F 77% 29.95 in 10.0 mi South 8.1 mph - N/A   Scattered Clouds
9:51 PM 61.0 °F 54.0 °F 78% 29.97 in 10.0 mi SW 3.5 mph - N/A   Mostly Cloudy
10:51 PM 61.0 °F 55.0 °F 81% 29.97 in 10.0 mi Calm Calm - N/A   Scattered Clouds
11:51 PM 62.1 °F 54.0 °F 75% 29.97 in 10.0 mi Calm Calm - N/A   Mostly Cloudy